FW2977 Weather Reports


time (UTC)temp
F
wind
direction
speed
knots
gust
knots
rain 1hr
in
rain 24hr
in
rain mn
in
humidity
%
barometer
mb
20260505153036 74 180 6.1 21.7 0.01 0.02 0.02 49 953.6
20260505151549 73 179 7.0 17.4 0.01 0.02 0.02 48 953.7
20260505124558 61 154 4.3 12.2 0.00 0.01 0.01 70 954.5
20260505123056 60 133 7.0 13.9 0.01 0.01 0.01 72 954.4
20260505121615 59 130 8.7 13.9 0.01 0.01 0.01 74 954.7
20260505120055 59 107 9.6 13.9 0.01 0.01 0.01 74 954.3
20260505114551 60 132 3.5 18.2 0.01 0.01 0.01 72 954.0
20260505113050 60 196 2.6 7.0 0.00 0.00 0.00 69 954.7
20260505111547 60 142 3.5 11.3 0.00 0.00 0.00 67 954.4
20260505101541 58 113 7.0 10.4 0.00 0.00 0.00 67 954.0
20260505100035 59 101 6.1 11.3 0.00 0.00 0.00 66 953.7
20260505094536 59 77 7.8 11.3 0.00 0.00 0.00 65 953.7
20260505093040 59 82 7.8 12.2 0.00 0.00 0.00 64 953.4
20260505091532 59 113 7.0 12.2 0.00 0.00 0.00 64 953.5
20260505090043 59 115 7.8 13.0 0.00 0.00 0.00 64 953.3
20260505084531 59 120 7.8 10.4 0.00 0.00 0.00 65 953.3
20260505083029 59 94 6.1 9.6 0.00 0.00 0.00 63 953.3
20260505081531 60 104 6.1 10.4 0.00 0.00 0.00 62 953.4
20260505080030 60 123 6.1 11.3 0.00 0.00 0.00 62 953.4
20260505074524 60 130 7.0 13.0 0.00 0.00 0.00 63 953.6
20260505073030 60 132 6.1 12.2 0.00 0.00 0.00 61 953.5
20260505071623 60 113 7.0 11.3 0.00 0.00 0.00 61 953.5
20260505070024 60 111 7.0 13.0 0.00 0.00 0.00 60 953.6
20260505064525 59 97 7.0 10.4 0.00 0.00 0.00 60 953.6
20260505063022 60 92 7.0 13.9 0.00 0.00 0.00 60 953.6
20260505061522 60 104 6.1 12.2 0.00 0.00 0.00 59 953.6
20260505060027 59 138 7.8 13.9 0.00 0.00 0.00 59 953.6
20260505054531 59 113 6.1 12.2 0.00 0.00 0.00 60 953.6
20260505053016 59 113 7.8 13.9 0.00 0.00 0.00 59 953.6
20260505051514 58 98 8.7 12.2 0.00 0.00 0.00 60 953.8
20260505041606 60 93 8.7 13.0 0.00 0.00 0.00 56 953.7
20260505040002 61 96 8.7 13.0 0.00 0.00 0.00 55 953.6
20260505034600 61 88 7.8 12.2 0.00 0.00 0.00 54 953.5
20260505033115 62 111 9.6 15.6 0.00 0.00 0.00 54 953.5
20260505031559 62 117 10.4 16.5 0.00 0.00 0.00 53 953.5
20260505030059 62 146 11.3 26.1 0.00 0.00 0.00 52 953.4
20260505024604 62 125 13.0 21.7 0.00 0.00 0.00 52 953.5
20260505023106 62 117 11.3 19.1 0.00 0.00 0.00 51 953.5
20260505021557 63 121 12.2 18.2 0.00 0.00 0.00 50 953.5
20260505020057 63 96 10.4 20.0 0.00 0.00 0.00 49 953.5
20260505014555 63 101 13.0 19.1 0.00 0.00 0.00 48 953.6
20260505013055 64 113 12.2 18.2 0.00 0.00 0.00 47 953.4
20260505011600 64 102 13.9 21.7 0.00 0.00 0.00 47 953.4
20260505010058 64 88 13.9 21.7 0.00 0.00 0.00 47 953.2
20260505004555 64 117 12.2 21.7 0.00 0.00 0.00 46 953.2
20260505003051 64 109 10.4 17.4 0.00 0.00 0.00 46 953.2
20260505001551 65 98 11.3 16.5 0.00 0.00 0.00 46 953.0
20260505000051 65 129 10.4 16.5 0.00 0.00 0.00 45 952.9
20260504234613 65 97 7.0 13.9 0.00 0.00 0.00 44 952.8
20260504233051 66 133 7.0 13.9 0.00 0.00 0.00 44 952.8
20260504231554 66 121 7.8 13.0 0.00 0.00 0.00 42 952.7
20260504230047 67 126 4.3 11.3 0.00 0.00 0.00 42 952.7
20260504224548 67 161 4.3 12.2 0.00 0.00 0.00 41 952.7
20260504223046 68 166 4.3 12.2 0.00 0.00 0.00 41 952.6
20260504221554 68 118 5.2 16.5 0.00 0.00 0.00 41 952.6
20260504220045 68 106 11.3 20.0 0.00 0.00 0.00 41 952.5
20260504214549 68 112 9.6 14.8 0.00 0.00 0.00 41 952.6
20260504213048 68 163 3.5 10.4 0.00 0.00 0.00 42 952.7
20260504211541 68 171 6.1 10.4 0.00 0.00 0.00 41 952.8
20260504210052 69 142 6.1 12.2 0.00 0.00 0.00 40 953.0
20260504204617 70 105 2.6 13.0 0.00 0.00 0.00 40 953.1
20260504203036 70 134 1.7 9.6 0.00 0.00 0.00 39 953.3
20260504201537 71 191 5.2 10.4 0.00 0.00 0.00 40 953.4
20260504200038 69 220 3.5 12.2 0.00 0.00 0.00 40 953.7
20260504194543 71 177 3.5 10.4 0.00 0.00 0.00 40 953.7
20260504193031 71 185 7.0 13.0 0.00 0.00 0.00 38 954.0
20260504191529 70 167 4.3 13.0 0.00 0.00 0.00 42 953.8
20260504190033 68 111 7.8 15.6 0.00 0.00 0.00 45 953.9
20260504184526 67 138 2.6 10.4 0.00 0.00 0.00 42 954.1
20260504183029 70 159 5.2 10.4 0.00 0.00 0.00 39 954.3
20260504181525 67 188 3.5 9.6 0.00 0.00 0.00 42 954.4
20260504180021 70 127 7.0 13.0 0.00 0.00 0.00 39 954.5
20260504174518 69 186 6.1 11.3 0.00 0.00 0.00 41 954.5
20260504173017 68 128 7.0 12.2 0.00 0.00 0.00 41 954.6
20260504171533 68 202 4.3 8.7 0.00 0.00 0.00 42 954.5